Zurück zum Katalog

IGS 7A

AktivMilitärSSO
NORAD 37954·PAYLOAD·🇯🇵 Japan

Gestartet Dec 12, 2011 von Tanegashima Space Center

Loading…

Nächste Überflüge (nächste 24 Stunden)

TLE

VeraltetSource: Mike McCants

Epoche: Aug 28, 2026, 22:33 UTC

1 37954U 11075A   26240.93964487 0.00002000  00000-0  99622-4 0    03
2 37954  97.4548 314.4576 0002707 100.9416 259.0582 15.17621095    02

Verfolge IGS 7A in Echtzeit mit AllMySat

Download on the App Store